Location: Unspecified
(51.0950°N, 12.9690°E)
Time: 05:26:01
(UTC+00:00)

ATLAS 3B R/B - Pass Details

Date: 25 May 2022
Orbit: 976 x 1218 km, 63.8° (Epoch: 20 June)

Event Time Altitude Azimuth Distance (km) Brightness Sun altitude
Rises 21:44:55 0° 315° (NW) 3,950 6.9 -15.7°
Reaches altitude 10° 21:47:35 10° 312° (NW) 3,023 6.0 -15.8°
Maximum altitude 21:54:37 56° 237° (WSW) 1,383 3.2 -16.2°
Enters shadow 21:59:19 23° 169° (S) 2,289 3.8 -16.4°
